Regional Weather Roundup
Issued by NWS

Home | Current Version | Previous Version | Graphics & Text | Print | Product List | Glossary On
Versions: 1 2 3 4 5 6 7 8 9 10 11 12 13 14 15 16 17 18 19 20 21 22 23 24 25 26 27 28 29 30 31 32 33 34 35 36 37 38 39 40 41 42 43 44 45 46 47 48 49 50
000
ASUS43 KFSD 070310
RWRSD

WEATHER ROUNDUP FOR SOUTH DAKOTA
NATIONAL WEATHER SERVICE SIOUX FALLS SD
1000 PM CDT MON JUL 06 2015

NOTE: "FAIR" INDICATES FEW OR NO CLOUDS BELOW 12,000 FEET WITH NO
SIGNIFICANT WEATHER AND/OR OBSTRUCTIONS TO VISIBILITY.


SDZ001>005-009-010-012>017-070400-
NORTHWEST AND NORTH CENTRAL SOUTH DAKOTA

CITY           SKY/WX    TMP DP  RH WIND       PRES   REMARKS
BUFFALO          N/A     62  50  64 NE9       30.11S
FAITH            N/A     62  53  72 NE6       30.16R
MOBRIDGE       CLEAR     63  56  78 NE9       30.12R HAZE
$$

SDZ012>016-024>037-041>051-057-063-072>074-070400-
SOUTHWEST AND SOUTH CENTRAL SOUTH DAKOTA

CITY           SKY/WX    TMP DP  RH WIND       PRES   REMARKS
RAPID CTY ARPT MOCLDY    63  57  81 NW5       30.18S
PIERRE         LGT RAIN  65  55  70 NE3       30.12R
CUSTER         MOCLDY    55  50  83 E5        30.27S HAZE
ELLSWORTH AFB  CLOUDY    68  53  58 N5        30.18R
PHILIP         MOCLDY    66  57  72 NE7       30.15R
PINE RIDGE     MOCLDY    61  55  81 E3        30.19R
SPEARFISH      MOCLDY    59  55  88 S6        30.22S
WINNER         FAIR      66  55  67 NE5       30.15R
$$

SDZ004>011-016>023-039-040-070400-
NORTHEAST SOUTH DAKOTA

CITY           SKY/WX    TMP DP  RH WIND       PRES   REMARKS
ABERDEEN       CLEAR     62  54  74 N7        30.13R
WATERTOWN      CLEAR     58  51  78 NE6       30.13R
BROOKINGS      CLEAR     61  50  67 NE6       30.14R
SISSETON         N/A     55  49  80 N6        30.11R
$$

SDZ017-020-022-023-036>040-048>070-070400-
SOUTHEAST SOUTH DAKOTA

CITY           SKY/WX    TMP DP  RH WIND       PRES   REMARKS
SIOUX FALLS    CLEAR     60  53  77 N8        30.09S
HURON          MOCLDY    63  55  75 NE6       30.12R HAZE
CHAMBERLAIN    MOCLDY    65  58  76 CALM      30.14R
MITCHELL       CLEAR     63  57  81 N5        30.12R
YANKTON        CLEAR     64  54  68 N9        30.09R
$$

ABBREVIATIONS USED IN REMARKS
   TC - TEMPERATURE IN CELSIUS
  WCI - WIND CHILL INDEX
   HX - HEAT INDEX
  VSB - VISIBILITY



USA.gov is the U.S. government's official web portal to all federal, state and local government web resources and services.